When you browse on this site, cookies collect data to enhance your experience and personalize the content and advertising you see.
Visit our Privacy Policy to learn more. By continuing to use the site, you agree to this use of cookies and data.
  • în România
  • Lista ţărilor
  • Pe 7 zile
  • Temperatura apei
  • Hartă satelitară
  • Meteo pe hartă
  • Widget-uri
  • user-avatar
    Intrare

    Meteo pe oră la Haro

    Astăzi, 25 Aprilie, Joi

    Timp Temperatura Precipitaţii Vânt Presiune Umiditate
    00:00 +8°C° 0.1 mm 4 m/s 709 mmHg 83%
    01:00 +7°C° 0 mm 4 m/s 710 mmHg 83%
    02:00 +7°C° 0 mm 4 m/s 710 mmHg 83%
    03:00 +6°C° 0 mm 4 m/s 710 mmHg 83%
    04:00 +6°C° 0 mm 4 m/s 711 mmHg 82%
    05:00 +6°C° 0 mm 4 m/s 711 mmHg 82%
    06:00 +6°C° 0 mm 4 m/s 712 mmHg 81%
    07:00 +7°C° 0 mm 5 m/s 712 mmHg 75%
    08:00 +8°C° 0 mm 7 m/s 712 mmHg 69%
    09:00 +10°C° 0 mm 8 m/s 713 mmHg 63%
    10:00 +10°C° 0 mm 8 m/s 713 mmHg 59%
    11:00 +11°C° 0 mm 8 m/s 713 mmHg 56%
    12:00 +12°C° 0 mm 8 m/s 713 mmHg 53%
    13:00 +12°C° 0.1 mm 9 m/s 713 mmHg 53%
    14:00 +12°C° 0.1 mm 9 m/s 714 mmHg 52%
    15:00 +12°C° 0.1 mm 9 m/s 714 mmHg 52%
    16:00 +11°C° 0.1 mm 8 m/s 714 mmHg 56%
    17:00 +10°C° 0.1 mm 7 m/s 714 mmHg 60%
    18:00 +10°C° 0.1 mm 6 m/s 715 mmHg 64%
    19:00 +9°C° 0 mm 7 m/s 715 mmHg 65%
    20:00 +8°C° 0 mm 7 m/s 716 mmHg 67%
    21:00 +6°C° 0 mm 7 m/s 717 mmHg 69%
    22:00 +7°C° 0.1 mm 6 m/s 717 mmHg 73%
    23:00 +7°C° 0.1 mm 5 m/s 718 mmHg 78%

    Mâine, 26 Aprilie, Vineri

    Timp Temperatura Precipitaţii Vânt Presiune Umiditate
    00:00 +6°C° 0.1 mm 4 m/s 719 mmHg 83%
    01:00 +6°C° 0 mm 4 m/s 719 mmHg 84%
    02:00 +6°C° 0 mm 4 m/s 720 mmHg 85%
    03:00 +6°C° 0 mm 4 m/s 721 mmHg 86%
    04:00 +7°C° 0 mm 3 m/s 721 mmHg 86%
    05:00 +5°C° 0 mm 3 m/s 722 mmHg 86%
    06:00 +5°C° 0 mm 3 m/s 723 mmHg 86%
    07:00 +8°C° 0 mm 3 m/s 723 mmHg 79%
    08:00 +8°C° 0 mm 4 m/s 724 mmHg 73%
    09:00 +11°C° 0 mm 4 m/s 724 mmHg 66%
    10:00 +12°C° 0.1 mm 3 m/s 725 mmHg 64%
    11:00 +12°C° 0.1 mm 3 m/s 725 mmHg 61%
    12:00 +14°C° 0.1 mm 2 m/s 726 mmHg 58%
    13:00 +14°C° 0.1 mm 2 m/s 726 mmHg 60%
    14:00 +14°C° 0.1 mm 2 m/s 726 mmHg 61%
    15:00 +14°C° 0.1 mm 2 m/s 726 mmHg 63%
    16:00 +13°C° 0 mm 2 m/s 726 mmHg 67%
    17:00 +13°C° 0 mm 2 m/s 726 mmHg 71%
    18:00 +12°C° 0 mm 2 m/s 726 mmHg 75%
    19:00 +10°C° 0 mm 2 m/s 727 mmHg 81%
    20:00 +9°C° 0 mm 1 m/s 727 mmHg 86%
    21:00 +8°C° 0 mm 1 m/s 728 mmHg 92%
    22:00 +8°C° 0 mm 1 m/s 728 mmHg 93%
    23:00 +6°C° 0 mm 0 m/s 728 mmHg 93%

    Poimâine, 27 Aprilie, Sâmbătă

    Timp Temperatura Precipitaţii Vânt Presiune Umiditate
    00:00 +6°C° 0 mm 0 m/s 728 mmHg 94%
    01:00 +5°C° 0 mm 0 m/s 728 mmHg 94%
    02:00 +5°C° 0 mm 0 m/s 728 mmHg 93%
    03:00 +5°C° 0 mm 0 m/s 728 mmHg 93%
    04:00 +5°C° 0 mm 0 m/s 728 mmHg 92%
    05:00 +5°C° 0 mm 0 m/s 728 mmHg 91%
    06:00 +7°C° 0 mm 1 m/s 728 mmHg 91%
    07:00 +9°C° 0 mm 1 m/s 728 mmHg 83%
    08:00 +11°C° 0 mm 1 m/s 728 mmHg 75%
    09:00 +13°C° 0 mm 1 m/s 728 mmHg 67%
    10:00 +14°C° 0 mm 1 m/s 728 mmHg 66%
    11:00 +14°C° 0 mm 2 m/s 728 mmHg 66%
    12:00 +15°C° 0 mm 2 m/s 728 mmHg 66%
    13:00 +15°C° 0 mm 2 m/s 728 mmHg 66%
    14:00 +14°C° 0 mm 3 m/s 728 mmHg 67%
    15:00 +14°C° 0 mm 3 m/s 728 mmHg 68%
    16:00 +13°C° 0 mm 3 m/s 728 mmHg 70%
    17:00 +14°C° 0 mm 2 m/s 728 mmHg 73%
    18:00 +13°C° 0 mm 2 m/s 728 mmHg 75%
    19:00 +12°C° 0 mm 2 m/s 728 mmHg 81%
    20:00 +11°C° 0 mm 1 m/s 728 mmHg 86%
    21:00 +9°C° 0 mm 1 m/s 729 mmHg 92%
    22:00 +9°C° 0 mm 1 m/s 729 mmHg 93%
    23:00 +9°C° 0 mm 1 m/s 729 mmHg 93%

    28 Aprilie, Duminică

    Timp Temperatura Precipitaţii Vânt Presiune Umiditate
    00:00 +8°C° 0 mm 1 m/s 728 mmHg 93%
    01:00 +8°C° 0 mm 1 m/s 728 mmHg 92%
    02:00 +8°C° 0 mm 1 m/s 728 mmHg 92%
    03:00 +8°C° 0 mm 1 m/s 728 mmHg 91%
    04:00 +7°C° 0 mm 1 m/s 727 mmHg 91%
    05:00 +7°C° 0 mm 1 m/s 727 mmHg 90%
    06:00 +7°C° 0 mm 1 m/s 727 mmHg 90%
    07:00 +8°C° 0 mm 1 m/s 727 mmHg 83%
    08:00 +8°C° 0 mm 2 m/s 726 mmHg 76%
    09:00 +10°C° 0 mm 2 m/s 726 mmHg 68%
    10:00 +12°C° 0 mm 2 m/s 726 mmHg 64%
    11:00 +14°C° 0 mm 2 m/s 725 mmHg 59%
    12:00 +15°C° 0 mm 2 m/s 725 mmHg 54%
    13:00 +16°C° 0 mm 3 m/s 724 mmHg 52%
    14:00 +17°C° 0 mm 3 m/s 724 mmHg 50%
    15:00 +17°C° 0 mm 3 m/s 724 mmHg 48%
    16:00 +16°C° 0 mm 3 m/s 723 mmHg 54%
    17:00 +16°C° 0 mm 2 m/s 723 mmHg 60%
    18:00 +15°C° 0 mm 2 m/s 723 mmHg 65%
    19:00 +12°C° 0 mm 1 m/s 723 mmHg 72%
    20:00 +10°C° 0 mm 1 m/s 723 mmHg 78%
    21:00 +8°C° 0 mm 1 m/s 723 mmHg 84%
    22:00 +7°C° 0 mm 1 m/s 723 mmHg 85%
    23:00 +7°C° 0 mm 1 m/s 723 mmHg 85%

    29 Aprilie, Luni

    Timp Temperatura Precipitaţii Vânt Presiune Umiditate
    00:00 +6°C° 0 mm 1 m/s 722 mmHg 85%
    01:00 +6°C° 0 mm 1 m/s 722 mmHg 83%
    02:00 +6°C° 0 mm 1 m/s 722 mmHg 81%
    03:00 +5°C° 0 mm 1 m/s 721 mmHg 79%
    04:00 +5°C° 0 mm 0 m/s 721 mmHg 76%
    05:00 +5°C° 0 mm 0 m/s 721 mmHg 73%
    06:00 +6°C° 0 mm 0 m/s 721 mmHg 70%
    07:00 +9°C° 0 mm 1 m/s 721 mmHg 62%
    08:00 +12°C° 0 mm 1 m/s 721 mmHg 53%
    09:00 +15°C° 0 mm 1 m/s 721 mmHg 45%
    10:00 +18°C° 0 mm 1 m/s 721 mmHg 42%
    11:00 +19°C° 0 mm 1 m/s 721 mmHg 39%
    12:00 +20°C° 0 mm 2 m/s 721 mmHg 36%
    13:00 +20°C° 0 mm 2 m/s 721 mmHg 36%
    14:00 +21°C° 0 mm 2 m/s 720 mmHg 37%
    15:00 +21°C° 0 mm 2 m/s 720 mmHg 37%
    16:00 +20°C° 0 mm 2 m/s 720 mmHg 45%
    17:00 +19°C° 0 mm 2 m/s 720 mmHg 52%
    18:00 +18°C° 0 mm 2 m/s 719 mmHg 60%
    19:00 +16°C° 0 mm 1 m/s 720 mmHg 67%
    20:00 +13°C° 0 mm 1 m/s 720 mmHg 75%
    21:00 +11°C° 0 mm 1 m/s 720 mmHg 82%
    22:00 +10°C° 0 mm 1 m/s 720 mmHg 84%
    23:00 +10°C° 0 mm 1 m/s 720 mmHg 86%

    30 Aprilie, Marţi

    Timp Temperatura Precipitaţii Vânt Presiune Umiditate
    00:00 +9°C° 0 mm 1 m/s 720 mmHg 87%
    01:00 +9°C° 0 mm 1 m/s 719 mmHg 86%
    02:00 +8°C° 0 mm 1 m/s 719 mmHg 85%
    03:00 +8°C° 0 mm 1 m/s 719 mmHg 84%
    04:00 +7°C° 0 mm 0 m/s 719 mmHg 82%
    05:00 +8°C° 0 mm 0 m/s 719 mmHg 79%
    06:00 +8°C° 0 mm 0 m/s 719 mmHg 77%
    07:00 +12°C° 0 mm 1 m/s 719 mmHg 68%
    08:00 +14°C° 0 mm 1 m/s 719 mmHg 59%
    09:00 +18°C° 0 mm 1 m/s 719 mmHg 51%
    10:00 +19°C° 0 mm 1 m/s 719 mmHg 47%
    11:00 +21°C° 0 mm 1 m/s 719 mmHg 42%
    12:00 +22°C° 0 mm 1 m/s 719 mmHg 38%
    13:00 +23°C° 0 mm 1 m/s 719 mmHg 38%
    14:00 +23°C° 0 mm 2 m/s 718 mmHg 38%
    15:00 +23°C° 0 mm 2 m/s 718 mmHg 38%
    16:00 +23°C° 0 mm 2 m/s 718 mmHg 44%
    17:00 +22°C° 0 mm 1 m/s 717 mmHg 51%
    18:00 +21°C° 0 mm 1 m/s 717 mmHg 57%
    19:00 +19°C° 0 mm 1 m/s 717 mmHg 62%
    20:00 +15°C° 0 mm 1 m/s 717 mmHg 68%
    21:00 +13°C° 0 mm 1 m/s 717 mmHg 73%
    22:00 +13°C° 0 mm 1 m/s 717 mmHg 75%
    23:00 +12°C° 0 mm 1 m/s 717 mmHg 78%
    Arată mai mult